Stations météo

réclame
Mon MeteoGroup
Ansbach/Katterbach, Allemagne (10755): Température de l'air & dewpoint: 15.06.2018 18:00:00 - 21.06.2018 18:00:00 (CEST)Ansbach/Katterbach, Allemagne (10755): Vitesse du vent & gusts: 15.06.2018 18:00:00 - 21.06.2018 18:00:00 (CEST)Ansbach/Katterbach, Allemagne (10755): Direction du vent: 15.06.2018 18:00:00 - 21.06.2018 18:00:00 (CEST)Ansbach/Katterbach, Allemagne (10755): reduced air pressure: 15.06.2018 18:00:00 - 21.06.2018 18:00:00 (CEST)Ansbach/Katterbach, Allemagne (10755): visibility: 15.06.2018 18:00:00 - 21.06.2018 18:00:00 (CEST)
Date & Time tt [°C] td [°C] ff [km/h] ff [knt] fx [km/h] fx [knt] dd ppp [hPa] vv [km]
21.06.2018 18:00:00 - - - - - - - - -
21.06.2018 17:00:00 20,5 12,5 22 12 - - NW 1016,7 10
21.06.2018 16:00:00 22,3 13,1 34 18 - - NW 1015,8 10
21.06.2018 15:00:00 23,1 10,5 22 12 - - WNW 1015,3 10
21.06.2018 14:00:00 23,0 8,7 31 17 48 26 W 1015,6 10
21.06.2018 13:00:00 24,0 12,0 35 19 50 27 W 1015,1 10
21.06.2018 12:00:00 25,2 14,3 37 20 - - W 1014,7 10
21.06.2018 11:00:00 24,2 15,7 24 13 - - W 1014,9 10
21.06.2018 10:00:00 24,5 15,9 13 7 - - W 1014,4 10
21.06.2018 09:00:00 23,4 16,7 9 5 - - W 1014,7 10
21.06.2018 08:00:00 20,6 16,4 0 0 - - N 1015,2 10
21.06.2018 07:00:00 18,4 15,3 8 4 - - SW 1015,4 10
21.06.2018 06:00:00 16,9 14,5 11 6 - - S 1015,8 10
21.06.2018 05:00:00 17,0 14,4 8 4 - - S 1015,8 10
21.06.2018 04:00:00 17,1 15,1 5 3 - - SSW 1016,5 10
21.06.2018 03:00:00 18,4 14,3 5 3 - - SSW 1017,1 10
21.06.2018 02:00:00 18,1 15,0 8 4 - - S 1017,5 10
21.06.2018 01:00:00 19,2 15,3 0 0 - - N - 10
21.06.2018 00:00:00 20,0 15,4 0 0 - - N - 10
20.06.2018 23:00:00 22,2 14,8 0 0 - - N 1018,3 10
20.06.2018 22:00:00 23,4 15,2 0 0 - - N 1018,3 10
20.06.2018 21:00:00 24,5 15,4 5 3 - - S 1018,3 10
20.06.2018 20:00:00 25,6 15,0 8 4 - - SSE 1018,5 10
20.06.2018 19:00:00 26,5 14,9 0 0 - - N 1018,8 10
20.06.2018 18:00:00 26,5 14,9 0 0 - - N 1019,2 10
20.06.2018 17:00:00 26,9 15,3 0 0 - - N 1019,9 10
20.06.2018 16:00:00 26,8 15,8 11 6 - - S 1020,4 10
20.06.2018 15:00:00 26,6 15,9 8 4 - - WSW 1020,7 10
20.06.2018 14:00:00 26,0 15,9 5 3 - - E 1021,4 10
20.06.2018 13:00:00 26,0 13,9 4 2 - - - 1021,1 10
20.06.2018 12:00:00 - - - - - - - - -
20.06.2018 11:00:00 24,2 15,1 9 5 - - SE 1022,6 10
20.06.2018 10:00:00 22,1 15,2 5 3 - - SE 1023,1 10
20.06.2018 09:00:00 20,8 14,9 8 4 - - SSE 1022,6 10
20.06.2018 08:00:00 17,7 15,0 0 0 - - N 1023,3 10
20.06.2018 07:00:00 17,1 14,4 5 3 - - NNE 1023,7 10
20.06.2018 06:00:00 16,8 14,1 0 0 - - N 1023,7 10
20.06.2018 05:00:00 16,3 13,8 0 0 - - N 1023,7 10
20.06.2018 04:00:00 15,3 13,8 0 0 - - N 1023,9 10
20.06.2018 03:00:00 15,6 14,0 0 0 - - N 1024,2 10
20.06.2018 02:00:00 16,0 13,7 0 0 - - N 1024,6 10
20.06.2018 01:00:00 17,9 13,4 0 0 - - N 1024,3 10
20.06.2018 00:00:00 18,8 13,8 5 3 - - NNE 1024,3 10
19.06.2018 23:00:00 19,4 14,2 8 4 - - N 1024,3 10
19.06.2018 22:00:00 20,4 14,5 8 4 - - N 1024,3 10
19.06.2018 21:00:00 - - - - - - - - -
19.06.2018 20:00:00 22,1 14,5 8 4 - - NNW 1024,0 10
19.06.2018 19:00:00 22,8 14,1 9 5 - - N 1024,2 10
19.06.2018 18:00:00 22,9 13,6 9 5 - - W 1024,4 10
19.06.2018 17:00:00 23,5 14,5 5 3 - - NNW 1024,6 10
19.06.2018 16:00:00 23,1 14,1 13 7 - - W 1024,8 10
19.06.2018 15:00:00 22,5 14,1 16 9 - - W 1025,1 10
19.06.2018 14:00:00 22,2 14,3 13 7 - - W 1025,1 10
19.06.2018 13:00:00 21,4 14,1 18 10 - - WSW 1025,4 10
19.06.2018 12:00:00 20,0 13,4 15 8 - - W 1025,4 10
19.06.2018 11:00:00 20,4 13,8 15 8 - - W 1025,1 10
19.06.2018 10:00:00 19,4 13,6 13 7 - - WNW 1025,1 10
19.06.2018 09:00:00 18,2 13,9 15 8 - - W 1025,2 10
19.06.2018 08:00:00 17,1 13,2 11 6 - - W 1024,9 10
19.06.2018 07:00:00 14,7 12,2 5 3 - - W - 10
19.06.2018 06:00:00 13,2 10,7 5 3 - - WSW - 10
19.06.2018 05:00:00 13,1 11,2 8 4 - - W - 10
19.06.2018 04:00:00 13,5 10,5 5 3 - - SW - 10
19.06.2018 03:00:00 12,2 10,4 5 3 - - W - 10
19.06.2018 02:00:00 13,8 10,6 0 0 - - N - 10
19.06.2018 01:00:00 14,9 10,5 5 3 - - WSW - 10
19.06.2018 00:00:00 15,5 10,7 5 3 - - SSW - 10
18.06.2018 23:00:00 16,1 10,6 5 3 - - W 1023,9 10
18.06.2018 22:00:00 17,6 10,7 5 3 - - WNW 1023,6 10
18.06.2018 21:00:00 19,3 10,6 8 4 - - WNW 1022,9 10
18.06.2018 20:00:00 20,2 10,6 11 6 - - WNW 1022,9 10
18.06.2018 19:00:00 - - - - - - - - -
18.06.2018 18:00:00 - - - - - - - - -
18.06.2018 17:00:00 - - - - - - - - -
18.06.2018 16:00:00 - - - - - - - - -
18.06.2018 15:00:00 - - - - - - - - -
18.06.2018 14:00:00 - - - - - - - - -
18.06.2018 13:00:00 - - - - - - - - -
18.06.2018 12:00:00 - - - - - - - - -
18.06.2018 11:00:00 17,6 10,5 9 5 - - SSW 1023,6 10
18.06.2018 10:00:00 16,8 10,6 5 3 - - WSW 1023,6 10
18.06.2018 09:00:00 15,8 11,0 5 3 - - SW 1023,3 10
18.06.2018 08:00:00 14,5 10,7 0 0 - - N 1022,9 10
18.06.2018 07:00:00 13,8 11,1 5 3 - - W 1022,6 10
18.06.2018 06:00:00 13,3 11,2 5 3 - - W 1022,6 10
18.06.2018 05:00:00 13,1 11,0 5 3 - - W 1021,9 10
18.06.2018 04:00:00 13,9 11,8 8 4 - - W 1021,7 10
18.06.2018 03:00:00 14,2 11,7 8 4 - - W 1021,9 10
18.06.2018 02:00:00 14,9 11,5 8 4 - - WNW 1021,3 10
18.06.2018 01:00:00 15,1 12,0 8 4 - - W 1021,7 10
18.06.2018 00:00:00 15,7 11,9 8 4 - - W 1021,2 10
17.06.2018 23:00:00 16,4 12,2 5 3 - - W 1020,9 10
17.06.2018 22:00:00 17,6 11,4 5 3 - - W 1020,1 10
17.06.2018 21:00:00 18,9 11,7 5 3 - - WNW 1019,6 10
17.06.2018 20:00:00 19,3 11,6 9 5 - - W 1019,3 10
17.06.2018 19:00:00 19,7 10,9 9 5 - - W 1018,6 10
17.06.2018 18:00:00 20,3 11,5 11 6 - - WNW 1018,8 10
17.06.2018 17:00:00 21,3 12,2 13 7 - - NW 1018,6 10
17.06.2018 16:00:00 21,1 11,1 16 9 - - W 1018,6 10
17.06.2018 15:00:00 20,5 12,7 16 9 - - NW 1018,6 10
17.06.2018 14:00:00 20,5 13,9 9 5 - - WNW 1018,9 10
17.06.2018 13:00:00 17,6 11,8 11 6 - - WNW 1019,5 10
17.06.2018 12:00:00 17,4 12,3 11 6 - - WNW 1019,3 10
17.06.2018 11:00:00 18,9 13,3 16 9 - - W 1018,7 10
17.06.2018 10:00:00 19,1 14,8 13 7 - - W 1018,2 10
17.06.2018 09:00:00 17,9 14,2 11 6 - - WNW 1017,8 10
17.06.2018 08:00:00 17,4 13,5 15 8 - - W 1017,2 10
17.06.2018 07:00:00 16,1 12,8 11 6 - - W 1017,0 10
17.06.2018 06:00:00 14,6 11,7 8 4 - - SW 1016,3 10
17.06.2018 05:00:00 14,1 12,3 5 3 - - W 1016,5 10
17.06.2018 04:00:00 15,0 12,7 8 4 - - WNW 1016,3 10
17.06.2018 03:00:00 15,1 12,8 8 4 - - WNW 1016,3 10
17.06.2018 02:00:00 15,4 13,1 5 3 - - W 1016,3 10
17.06.2018 01:00:00 15,7 13,0 5 3 - - W 1016,3 10
17.06.2018 00:00:00 18,3 12,3 0 0 - - N 1016,1 10
16.06.2018 23:00:00 19,8 13,0 0 0 - - N 1016,0 10
16.06.2018 22:00:00 21,1 11,4 5 3 - - NNE 1015,8 10
16.06.2018 21:00:00 21,7 11,1 5 3 - - N 1015,5 10
16.06.2018 20:00:00 22,2 10,7 5 3 - - NNW 1015,3 10
16.06.2018 19:00:00 22,5 10,9 8 4 - - N 1015,3 10
16.06.2018 18:00:00 23,1 10,2 0 0 - - N 1015,9 10
16.06.2018 17:00:00 22,8 9,6 0 0 - - N 1015,9 10
16.06.2018 16:00:00 23,4 10,8 0 0 - - N 1015,9 10
16.06.2018 15:00:00 23,4 10,1 0 0 - - N 1016,2 10
16.06.2018 14:00:00 22,2 11,0 0 0 - - N 1016,3 10
16.06.2018 13:00:00 21,4 10,5 5 3 - - S 1017,2 10
16.06.2018 12:00:00 22,3 9,4 5 3 - - SSW 1017,0 10
16.06.2018 11:00:00 21,7 11,1 0 0 - - N 1017,0 10
16.06.2018 10:00:00 19,9 12,1 0 0 - - N 1017,0 10
16.06.2018 09:00:00 18,2 12,0 11 6 - - E 1017,0 10
16.06.2018 08:00:00 16,6 12,9 0 0 - - N 1017,0 10
16.06.2018 07:00:00 14,7 12,7 0 0 - - N 1017,2 10
16.06.2018 06:00:00 12,0 10,7 0 0 - - N 1017,1 10
16.06.2018 05:00:00 12,0 10,9 0 0 - - N 1017,3 10
16.06.2018 04:00:00 13,5 10,8 0 0 - - N 1017,4 10
16.06.2018 03:00:00 13,9 10,9 0 0 - - N 1017,8 10
16.06.2018 02:00:00 15,4 10,8 5 3 - - NNE 1018,1 10
16.06.2018 01:00:00 15,6 10,8 8 4 - - NNE 1017,9 10
16.06.2018 00:00:00 16,3 10,6 9 5 - - NNE 1018,1 10
15.06.2018 23:00:00 17,0 10,1 9 5 - - N 1017,9 10
15.06.2018 22:00:00 17,6 10,0 9 5 - - N 1017,6 10
15.06.2018 21:00:00 19,5 9,4 8 4 - - N 1017,6 10
15.06.2018 20:00:00 20,4 8,7 0 0 - - N 1017,4 10
15.06.2018 19:00:00 20,6 8,9 5 3 - - NNE 1017,1 10
15.06.2018 18:00:00 21,6 8,8 5 3 - - NNE 1017,6 10

tt = Température de l'air
td = dewpoint
ff = Vitesse du vent
fx = gusts
dd = Direction du vent
ppp = reduced air pressure
vv = visibility

stations d'obs. à proximité